Watonga, OK

11:02 AM CST on February 10, 2016 (GMT -0600)
Watonga

Weather History for KJWG - January, 2013

Change the Weather History Date:

Friday, January 11, 2013

  Actual Average Record
Temperature  
Mean Temperature 54 °F -  
Max Temperature 64 °F 42 °F - (-1)
Min Temperature 45 °F 22 °F - (-1)
Degree Days  
Heating Degree Days 10    
Growing Degree Days 4 (Base 50)    
Moisture  
Dew Point 47 °F    
Average Humidity 81    
Maximum Humidity 100    
Minimum Humidity 47    
Precipitation  
Precipitation 0.00 in - - ()
Sea Level Pressure  
Sea Level Pressure 29.71 in    
Wind  
Wind Speed 15 mph (SSW)    
Max Wind Speed 30 mph    
Max Gust Speed 38 mph    
Visibility 10 miles    
Events      
Averages and records for this station are not official NWS values.
T = Trace of Precipitation, MM = Missing Value Source: NWS Daily Summary

Daily Weather History Graph

Daily Weather History Graph

Search for Another Location

Airport or City:

Trip Planner

Search our weather history database for the weather conditions in past years. The results will help you decide how hot, cold, wet, or windy it might be!

Date:

Astronomy

Jan. 11, 2013 Rise Set
Actual Time 7:44 AM CST 5:39 PM CST
Civil Twilight 7:16 AM CST 6:07 PM CST
Nautical Twilight 6:44 AM CST 6:39 PM CST
Astronomical Twilight 6:13 AM CST 7:10 PM CST
Moon 7:19 AM CST (1/11) 5:57 PM CST (1/11)
Length of Visible Light 10h 51m
Length of Day
9h 55m
Waning Crescent, 0% of the Moon is Illuminated
Jan 11
Waning Crescent
Jan 11
New
Jan 18
First Quarter
Jan 26
Full
Feb 3
Last Quarter

Hourly Weather History & Observations

Time (CST) Temp. Windchill Dew Point Humidity Pressure Visibility Wind Dir Wind Speed Gust Speed Precip Events Conditions
12:15 AM 45.9 °F 40.4 °F 45.9 °F 100% 29.78 in 10.0 mi South 11.5 mph - N/A   Clear
12:35 AM 45.9 °F 40.4 °F 45.9 °F 100% 29.78 in 10.0 mi South 11.5 mph - N/A   Clear
12:55 AM 46.8 °F - 46.8 °F 100% 29.78 in 10.0 mi South 16.1 mph - N/A   Clear
1:15 AM 46.4 °F 40.7 °F 46.4 °F 100% 29.79 in 10.0 mi South 12.7 mph - N/A   Clear
1:35 AM 46.4 °F 40.1 °F 46.4 °F 100% 29.77 in 10.0 mi South 15.0 mph 20.7 mph N/A   Clear
1:55 AM 47.1 °F - 47.1 °F 100% 29.76 in 10.0 mi South 15.0 mph 19.6 mph N/A   Clear
2:15 AM 47.3 °F - 47.3 °F 100% 29.75 in 10.0 mi South 15.0 mph - N/A   Clear
2:35 AM 47.3 °F - 47.3 °F 100% 29.74 in 10.0 mi South 15.0 mph - N/A   Clear
2:55 AM 47.3 °F - 47.3 °F 100% 29.76 in 10.0 mi SSW 16.1 mph 21.9 mph N/A   Clear
3:15 AM 46.9 °F - 46.9 °F 100% 29.74 in 10.0 mi SSW 16.1 mph - N/A   Clear
3:35 AM 47.3 °F - 47.3 °F 100% 29.72 in 10.0 mi South 15.0 mph - N/A   Clear
3:55 AM 47.7 °F - 47.7 °F 100% 29.73 in 10.0 mi SSW 12.7 mph - N/A   Clear
4:15 AM 47.3 °F - 47.3 °F 100% 29.72 in 10.0 mi SSW 12.7 mph - N/A   Clear
4:35 AM 47.7 °F - 46.9 °F 97% 29.72 in 10.0 mi SSW 10.4 mph - N/A   Clear
4:55 AM 48.2 °F - 46.6 °F 94% 29.70 in 10.0 mi South 15.0 mph 18.4 mph N/A   Clear
5:15 AM 47.1 °F - 46.4 °F 97% 29.70 in 10.0 mi South 12.7 mph 17.3 mph N/A   Clear
5:35 AM 45.9 °F 39.7 °F 45.9 °F 100% 29.69 in 10.0 mi South 13.8 mph - N/A   Clear
5:55 AM 45.5 °F 40.3 °F 45.5 °F 100% 29.69 in 10.0 mi SSW 10.4 mph - N/A   Clear
6:15 AM 45.5 °F 39.9 °F 45.5 °F 100% 29.71 in 10.0 mi SSW 11.5 mph - N/A   Clear
6:35 AM 45.9 °F 41.7 °F 45.1 °F 97% 29.71 in 10.0 mi South 8.1 mph 17.3 mph N/A   Clear
6:55 AM 45.5 °F 42.5 °F 45.0 °F 98% 29.71 in 10.0 mi SSW 5.8 mph - N/A   Clear
7:15 AM 45.5 °F 39.9 °F 45.0 °F 98% 29.70 in 10.0 mi South 11.5 mph - N/A   Clear
7:35 AM 45.5 °F 40.3 °F 45.0 °F 98% 29.72 in 10.0 mi SSW 10.4 mph - N/A   Clear
7:55 AM 45.7 °F 40.6 °F 45.0 °F 97% 29.72 in 10.0 mi South 10.4 mph - N/A   Clear
8:15 AM 46.4 °F 41.9 °F 45.1 °F 95% 29.73 in 10.0 mi South 9.2 mph - N/A   Clear
8:35 AM 47.3 °F - 45.5 °F 93% 29.73 in 10.0 mi South 11.5 mph 16.1 mph N/A   Clear
8:55 AM 48.0 °F - 46.2 °F 93% 29.73 in 10.0 mi South 15.0 mph 21.9 mph N/A   Clear
9:15 AM 48.4 °F - 46.8 °F 94% 29.72 in 10.0 mi South 17.3 mph 23.0 mph N/A   Clear
9:35 AM 49.1 °F - 47.3 °F 93% 29.71 in 10.0 mi South 16.1 mph 25.3 mph N/A   Clear
9:55 AM 50.0 °F - 47.7 °F 92% 29.72 in 10.0 mi SSW 18.4 mph 25.3 mph N/A   Clear
10:15 AM 51.4 °F - 48.6 °F 90% 29.71 in 10.0 mi SSW 21.9 mph 27.6 mph N/A   Clear
10:55 AM 54.7 °F - 48.6 °F 80% 29.70 in 10.0 mi SSW 23.0 mph 31.1 mph N/A   Clear
11:15 AM 55.6 °F - 48.6 °F 77% 29.68 in 10.0 mi SSW 27.6 mph 38.0 mph N/A   Clear
11:35 AM 55.9 °F - 48.6 °F 76% 29.69 in 10.0 mi SSW 27.6 mph 34.5 mph N/A   Clear
11:55 AM 56.5 °F - 48.9 °F 76% 29.68 in 10.0 mi SSW 19.6 mph 32.2 mph N/A   Clear
12:15 PM 57.7 °F - 49.3 °F 73% 29.64 in 10.0 mi SSW 21.9 mph 35.7 mph N/A   Clear
12:35 PM 59.4 °F - 49.8 °F 71% 29.64 in 10.0 mi SSW 29.9 mph 35.7 mph N/A   Clear
12:55 PM 59.0 °F - 50.2 °F 73% 29.64 in 10.0 mi SSW 24.2 mph 31.1 mph N/A   Clear
1:15 PM 59.2 °F - 49.8 °F 71% 29.62 in 10.0 mi SSW 25.3 mph 33.4 mph N/A   Clear
1:55 PM 62.2 °F - 50.9 °F 66% 29.61 in 10.0 mi SSW 28.8 mph 35.7 mph N/A   Clear
2:15 PM 63.1 °F - 51.4 °F 66% 29.62 in 10.0 mi SSW 27.6 mph 35.7 mph N/A   Clear
2:35 PM 63.5 °F - 51.1 °F 64% 29.62 in 10.0 mi SSW 25.3 mph 35.7 mph N/A   Clear
2:55 PM 63.7 °F - 51.1 °F 64% 29.62 in 10.0 mi SSW 20.7 mph 32.2 mph N/A   Clear
3:15 PM 64.0 °F - 50.7 °F 62% 29.62 in 10.0 mi SSW 24.2 mph 32.2 mph N/A   Clear
3:35 PM 64.6 °F - 50.9 °F 61% 29.63 in 10.0 mi SSW 25.3 mph 33.4 mph N/A   Clear
3:55 PM 63.7 °F - 51.1 °F 64% 29.63 in 10.0 mi SSW 17.3 mph 31.1 mph N/A   Clear
4:15 PM 63.1 °F - 51.3 °F 65% 29.63 in 10.0 mi SSW 19.6 mph 28.8 mph N/A   Clear
4:35 PM 62.8 °F - 51.8 °F 67% 29.64 in 10.0 mi SSW 18.4 mph 29.9 mph N/A   Clear
4:55 PM 62.4 °F - 52.0 °F 69% 29.64 in 10.0 mi South 19.6 mph 25.3 mph N/A   Clear
5:15 PM 62.1 °F - 52.2 °F 70% 29.63 in 10.0 mi South 16.1 mph 21.9 mph N/A   Clear
5:35 PM 61.7 °F - 52.3 °F 71% 29.65 in 10.0 mi SSW 13.8 mph 19.6 mph N/A   Clear
5:55 PM 61.0 °F - 52.5 °F 74% 29.65 in 10.0 mi SSW 11.5 mph 20.7 mph N/A   Clear
6:15 PM 61.0 °F - 52.7 °F 74% 29.66 in 10.0 mi SSW 17.3 mph 24.2 mph N/A   Clear
6:55 PM 61.2 °F - 52.3 °F 73% 29.68 in 10.0 mi SSW 16.1 mph 20.7 mph N/A   Clear
7:15 PM 61.0 °F - 52.3 °F 73% 29.69 in 10.0 mi SSW 15.0 mph - N/A   Clear
7:35 PM 60.8 °F - 52.2 °F 73% 29.69 in 10.0 mi SSW 13.8 mph - N/A   Clear
7:55 PM 60.3 °F - 51.8 °F 74% 29.70 in 10.0 mi SSW 13.8 mph - N/A   Clear
8:15 PM 59.0 °F - 52.0 °F 78% 29.73 in 10.0 mi WSW 12.7 mph - N/A   Clear
8:35 PM 59.0 °F - 51.6 °F 76% 29.75 in 10.0 mi WSW 10.4 mph - N/A   Clear
9:15 PM 57.2 °F - 46.4 °F 67% 29.78 in 10.0 mi West 8.1 mph - N/A   Clear
9:35 PM 55.0 °F - 43.9 °F 66% 29.78 in 10.0 mi WNW 8.1 mph - N/A   Clear
9:55 PM 55.4 °F - 41.0 °F 58% 29.80 in 10.0 mi WNW 9.2 mph - N/A   Clear
10:15 PM 53.6 °F - 39.2 °F 58% 29.81 in 10.0 mi WNW 9.2 mph - N/A   Clear
10:35 PM 51.8 °F - 39.4 °F 63% 29.82 in 10.0 mi WNW 6.9 mph - N/A   Clear
10:55 PM 52.7 °F - 35.2 °F 52% 29.81 in 10.0 mi WNW 9.2 mph - N/A   Clear
11:15 PM 52.2 °F - 32.4 °F 47% 29.83 in 10.0 mi WNW 10.4 mph - N/A   Clear
11:35 PM 51.6 °F - 32.0 °F 47% 29.83 in 10.0 mi WNW 9.2 mph - N/A   Clear
11:55 PM 49.3 °F - 33.3 °F 54% 29.84 in 10.0 mi WNW 9.2 mph - N/A   Clear